Location: Gipe Farm
(40.9466°N, 95.5370°W)
Time: 00:22:32
(UTC-05:00)

Daily predictions for brighter satellites

Satellite Brightness Start Highest point End
(mag) Time Altitude Azimuth Time Altitude Azimuth Time Altitude Azimuth
Cosmos 2184 Rocket 4.1 00:00:26 10° N 00:06:44 65° E 00:08:29 46° SE
Cosmos 2278 Rocket 3.9 00:03:03 10° WSW 00:08:02 31° WNW 00:13:03 10° N
Meteor 2-10 Rocket 4.3 00:03:56 10° N 00:08:45 38° ENE 00:09:40 35° E
Spot 4 3.8 00:12:13 65° S 00:12:54 80° WSW 00:17:47 10° NNW
BREEZE-M DEB (TANK) 3.5 00:07:21 10° WSW 00:15:05 83° NNW 00:18:42 10° ENE
Cosmos 1441 Rocket 3.5 00:11:25 10° N 00:14:40 59° NNE 00:14:40 59° NNE
Cosmos 407 Rocket 3.3 00:15:51 65° SE 00:16:20 70° ESE 00:21:29 10° NNE
Cosmos 1900 4.5 00:23:30 56° E 00:23:30 56° E 00:27:58 10° NE
Cosmos 1500 Rocket 4.0 00:27:25 51° ENE 00:27:25 51° ENE 00:31:12 10° NNE
Cosmos 405 Rocket 3.2 00:23:54 10° N 00:26:54 55° N 00:26:54 55° N
Cosmos 1190 Rocket 3.9 00:29:35 64° SSW 00:30:24 85° WNW 00:35:39 10° NNE
SL-19 R/B 4.0 00:25:13 10° NNE 00:30:39 75° ESE 00:31:18 66° SSE
SL-27 R/B 4.3 00:31:29 10° NW 00:33:50 26° WNW 00:33:50 26° WNW
Cosmos 2369 Rocket 2.9 00:36:42 38° ESE 00:36:42 38° ESE 00:41:45 10° NE
Cosmos 1151 Rocket 3.0 00:35:42 10° N 00:39:40 76° N 00:39:40 76° N
ATLAS 5 CENTAUR R/B 3.9 00:38:39 10° W 00:42:25 24° NW 00:46:30 10° NNE
ALOS 2 2.7 00:43:56 69° ENE 00:43:56 69° ENE 00:48:10 10° N
Cosmos 1023 Rocket 4.4 00:44:34 68° ESE 00:44:36 68° ESE 00:49:39 10° NNE
Mayak -1.0 00:41:11 10° NNE 00:44:50 66° NNE 00:44:50 66° NNE
Nadezhda 1 Rocket 4.0 00:44:02 53° SSW 00:45:43 83° W 00:52:09 10° N
Cosmos 1809 Rocket 4.4 00:39:51 10° N 00:45:56 76° W 00:47:12 57° SSW
CZ-4 R/B 3.9 00:42:08 10° N 00:46:53 66° WNW 00:47:19 62° WSW
Cosmos 2058 4.1 00:54:05 34° W 00:54:10 34° WNW 00:57:59 10° N
Cosmos 371 Rocket 3.2 00:50:01 10° NNW 00:54:54 89° ENE 00:54:56 88° SE
Cosmos 2151 3.7 00:55:07 43° WNW 00:55:07 43° WNW 00:59:10 10° N
Cosmos 2082 Rocket 3.4 00:51:17 10° NW 00:56:07 29° WSW 00:56:41 28° WSW
Cosmos 1515 Rocket 3.9 00:51:55 10° NNW 00:56:01 58° WNW 00:56:01 58° WNW
Cosmos 1833 Rocket 4.0 00:52:00 10° NW 00:56:27 25° WSW 00:57:01 24° WSW
CZ-2C R/B 4.5 00:55:26 10° NNW 00:59:39 24° WNW 01:02:36 15° WSW
H-2A R/B 2.4 01:00:26 57° NE 01:00:26 57° NE 01:04:04 10° N
Cosmos 1869 3.9 00:57:35 10° NNW 01:00:52 53° NW 01:00:52 53° NW
Timation 2 Rocket 4.2 01:03:36 10° NNW 01:10:21 77° ENE 01:12:23 49° SE
Meteor 2-14 Rocket 4.5 01:04:23 10° NNW 01:10:23 64° W 01:11:25 55° SW
In-Cosmos 22 Rocket 4.0 01:11:10 67° ESE 01:11:29 69° E 01:16:51 10° NNE
Cosmos 1943 Rocket 2.3 01:11:43 56° ESE 01:11:49 56° ESE 01:17:16 10° NNE
CZ-4B R/B 3.4 01:10:05 10° NNE 01:15:23 80° WNW 01:15:54 71° SW
Cosmos 2263 4.1 01:21:53 64° SE 01:22:09 65° ESE 01:27:43 10° NNE
Cosmos 332 Rocket 4.5 01:20:03 10° NNW 01:24:21 44° W 01:24:21 44° W
BREEZE M DEB (TANK) 4.3 01:10:06 10° WSW 01:25:51 60° NNW 01:29:59 10° NE
deb Chang Zheng 4 3.7 01:21:52 10° NNE 01:25:51 69° NE 01:25:51 69° NE
Cosmos 2098 Rocket 4.2 01:21:16 10° N 01:28:39 76° E 01:30:16 54° SSE
Cosmos 1892 3.6 01:32:29 45° NNE 01:32:29 45° NNE 01:35:14 10° NNE
Meteor 2-8 Rocket 4.4 01:32:13 60° SSW 01:33:22 79° W 01:39:33 10° N
Cosmos 1140 Rocket 4.3 01:35:08 37° W 01:36:08 41° WNW 01:41:01 10° N
SL-24 R/B 4.3 01:38:25 10° N 01:43:01 78° WNW 01:43:18 75° WSW
ADEOS Rocket 3.9 01:37:36 10° N 01:43:12 42° WNW 01:45:35 31° WSW
Cosmos 1741 Rocket 3.8 01:44:06 77° SW 01:44:30 85° WNW 01:49:49 10° NNE
Sich 1 3.2 01:48:00 72° NNW 01:48:00 72° NNW 01:52:03 10° N
Cosmos 1805 Rocket 4.1 01:48:34 51° WNW 01:48:34 51° WNW 01:52:37 10° N
Cosmos 468 Rocket 4.5 01:44:29 10° N 01:49:32 53° ENE 01:50:35 45° ESE
CENTAUR R/B 4.4 01:47:28 10° WNW 01:53:32 23° WSW 01:54:32 23° WSW
Cosmos 1867 4.1 01:57:21 43° ESE 01:57:23 43° ESE 02:02:32 10° NE
CZ-4C R/B 4.5 01:58:18 34° ENE 01:58:18 34° ENE 02:01:26 10° N
COSMOS 2455 4.4 01:53:35 10° NNW 01:58:57 32° NE 02:04:17 10° ESE
BREEZE-M DEB (TANK) 4.0 01:57:49 43° SSW 02:00:13 63° SSE 02:03:46 10° ENE
Cosmos 1862 Rocket 4.2 01:58:22 10° N 02:02:45 48° E 02:03:01 48° E
Cosmos 2208 Rocket 4.0 01:57:45 10° NNW 02:03:11 86° ENE 02:03:57 67° SSE
Meteor 1-26 Rocket 4.1 02:00:36 10° N 02:06:19 90° W 02:07:12 65° S
USA 234 3.1 01:59:57 10° NE 02:06:32 88° SE 02:08:49 45° SW
Cosmos 1818 3.7 02:04:18 10° NNW 02:09:48 73° ENE 02:11:22 47° SE
Lacrosse 4 Rocket 1.8 02:11:44 57° E 02:11:44 57° E 02:15:44 10° NE
Cosmos 1933 4.4 02:07:47 10° NNW 02:10:44 36° WNW 02:10:44 36° WNW
Cosmos 1633 Rocket 3.3 02:13:27 57° WNW 02:13:27 57° WNW 02:17:39 10° N
Cosmos 1707 Rocket 4.4 02:09:13 10° NNW 02:12:49 40° WNW 02:12:49 40° WNW
Meteor 2-15 Rocket 4.4 02:14:15 53° SSE 02:15:41 73° E 02:21:45 10° NNE
Cosmos 1408 3.2 02:16:48 54° N 02:16:48 54° N 02:19:45 10° N
Cosmos 1782 3.6 02:13:43 10° N 02:17:31 42° ENE 02:17:32 42° E
Cosmos 2369 Rocket 3.5 02:18:27 24° W 02:20:37 32° WNW 02:25:39 10° N
SL-8 Rocket 4.5 02:15:26 10° NNW 02:21:21 45° W 02:22:32 40° WSW
Meteor 2-15 4.3 02:20:38 56° SSW 02:22:00 83° W 02:28:06 10° N
Cosmos 1470 Rocket 3.5 02:23:23 88° WSW 02:23:24 88° WNW 02:27:53 10° N
Cosmos 2218 Rocket 4.3 02:18:22 10° NNW 02:24:19 51° W 02:25:29 45° SW
MOS 1 Rocket 3.8 02:26:28 10° N 02:31:06 46° WNW 02:31:35 44° W
Cosmos 1825 2.6 02:33:34 56° NNW 02:33:34 56° NNW 02:36:47 10° N
Cosmos 1570 Rocket 4.5 02:28:35 10° NNW 02:33:32 44° WSW 02:33:32 44° WSW
Cosmos 1656 Rocket 3.7 02:32:34 55° SW 02:33:48 75° WNW 02:39:28 10° NNE
Meteor 2-3 Rocket 4.1 02:36:12 44° WSW 02:37:29 52° WNW 02:43:09 10° N
Cosmos 1606 3.1 02:39:18 10° NNW 02:42:33 55° NW 02:42:33 55° NW
Cosmos 1933 Rocket 3.6 02:45:10 61° W 02:45:18 61° W 02:49:38 10° N
Cosmos 1763 Rocket 3.3 02:42:08 10° NNW 02:47:11 73° WSW 02:47:56 61° SSW
Cosmos 292 Rocket 3.7 02:45:52 10° NNW 02:50:44 88° WSW 02:51:41 58° SSE
CZ-4B R/B 2.2 02:52:52 44° N 02:52:52 44° N 02:55:06 10° NNW
Cosmos 1689 Rocket 3.2 02:52:46 45° NNE 02:52:46 45° NNE 02:55:03 10° N
Cosmos 540 Rocket 4.1 02:49:39 10° N 02:54:40 52° ENE 02:57:47 22° SE
NPP 4.0 02:49:25 10° NNE 02:54:45 56° E 02:56:32 38° SSE
Cosmos 1862 3.5 02:54:37 57° ESE 02:54:56 59° E 02:58:50 10° NNE
CZ-2D R/B 3.0 02:50:29 10° NNE 02:55:30 41° E 02:57:40 28° SE
Cosmos 1943 Rocket 3.9 02:53:13 16° W 02:55:56 22° NW 03:00:16 10° N
Cosmos 1184 Rocket 4.3 02:54:58 10° NNE 02:57:54 30° ENE 02:58:24 28° E
ARIANE 5 R/B 4.1 02:56:26 10° NE 03:00:32 25° E 03:03:07 17° SE
CBERS-1 4.4 02:56:32 10° NNE 03:01:37 57° E 03:03:20 38° SSE
Nadezhda 3 Rocket 4.2 03:00:47 40° SW 03:02:56 60° W 03:09:13 10° N
IRS-P3 4.4 02:59:38 10° NNE 03:04:57 62° ESE 03:06:55 37° SSE
Spot 2 3.9 03:01:16 10° N 03:05:32 69° WNW 03:06:00 61° WSW
Cosmos 1934 Rocket 4.0 03:04:05 10° N 03:10:27 83° E 03:13:48 30° S
SL-16 R/B 2.7 03:06:35 22° SSE 03:10:46 72° ENE 03:16:56 10° N
Cosmos 2239 Rocket 4.4 03:06:07 10° NNW 03:12:18 71° W 03:14:53 37° SSW
Resurs 1-4 Rocket 2.4 03:08:33 10° NNE 03:13:51 61° E 03:16:05 34° SSE
Cosmos 1814 Rocket 4.3 03:09:48 10° NNW 03:14:49 45° WSW 03:15:36 42° SW
GP-B 3.6 03:15:19 10° NNW 03:19:31 42° W 03:20:09 39° WSW
Cosmos 841 Rocket 3.6 03:15:20 10° NNW 03:20:23 52° WSW 03:21:36 43° SSW
Cosmos 1869 Rocket 3.4 03:20:44 53° SSW 03:21:44 81° W 03:26:08 10° N
Cosmos 1812 4.5 03:19:37 10° NNE 03:23:03 29° ENE 03:25:51 14° SE
SL-08 R/B 3.3 03:20:49 31° SSE 03:23:04 81° ENE 03:27:45 10° N
SL-8 R/B 3.5 03:24:02 10° WNW 03:28:50 72° SW 03:33:38 10° SE
H-2A R/B 2.3 03:26:02 10° NNE 03:29:59 75° ESE 03:30:59 47° S
Cosmos 1437 Rocket 2.9 03:31:12 49° SW 03:32:03 63° WNW 03:36:08 10° N
Cosmos 2221 Rocket 3.5 03:29:04 10° N 03:33:32 88° W 03:35:23 35° S
Cosmos 1633 3.7 03:34:39 25° SE 03:36:08 38° E 03:39:32 10° NNE
Genesis I 3.1 03:32:39 10° NW 03:36:47 82° SW 03:39:03 25° SSE
Okean 1-7 3.2 03:32:50 10° NNW 03:37:09 56° W 03:38:19 41° SSW
UNK 3.7 03:37:42 35° S 03:39:32 65° WSW 03:44:11 10° NNW
Cosmos 2219 3.1 03:34:30 10° NNW 03:40:07 68° WSW 03:43:53 21° S
BREEZE-M DEB (TANK) 2.1 03:40:19 22° WNW 03:41:51 81° SSW 03:46:55 10° SE
Cosmos 1703 Rocket 4.2 03:38:06 10° NNW 03:42:06 35° W 03:42:50 33° WSW
Cosmos 2369 4.5 03:39:06 21° SSE 03:42:29 45° ESE 03:47:51 10° NE
TIMED 4.5 03:42:38 37° SSW 03:44:18 84° ESE 03:48:42 10° NNE
Spot 4 Rocket 4.2 03:39:52 10° NNE 03:45:00 68° ESE 03:48:05 24° S
COSMOS 2455 3.2 03:39:20 10° NW 03:45:01 44° WSW 03:47:54 26° SSW
Cosmos 1980 Rocket 4.4 03:41:47 10° SE 03:45:14 17° E 03:48:42 10° ENE
USA 229 DEB 3.8 03:40:43 10° NW 03:47:54 69° WSW 03:55:15 10° SSE
USA 229 3.8 03:40:50 10° NW 03:48:01 70° WSW 03:55:23 10° SSE
Lacrosse 4 Rocket 3.7 03:48:03 12° W 03:50:28 17° NW 03:53:21 10° N
ERS-1 4.5 03:48:14 10° NNE 03:53:29 88° WNW 03:56:30 26° SSW
AQUA 4.3 03:49:23 10° N 03:53:56 48° WNW 03:56:03 28° SW
IRS-1D 3.5 03:50:11 10° N 03:55:17 71° WNW 03:57:58 27° SSW
Cosmos 1727 Rocket 4.0 03:52:47 23° S 03:56:54 84° W 04:03:14 10° N
Cosmos 2297 Rocket 2.4 03:56:20 10° NNW 04:02:00 72° ENE 04:07:38 10° SSE
ATLAS CENTAUR R/B 1.3 04:00:46 33° SW 04:02:17 64° NW 04:06:17 10° NNE
Cosmos 1354 Rocket 4.4 04:01:35 25° SW 04:04:18 49° WNW 04:09:23 10° N
Cosmos 1733 Rocket 3.0 04:04:00 24° S 04:06:35 89° ESE 04:10:58 10° N
Cosmos 44 4.2 04:04:22 20° WSW 04:07:04 37° NW 04:11:43 10° NNE
Meteor 1-27 Rocket 4.4 04:01:49 10° NNW 04:07:09 38° W 04:10:17 22° SW
Cosmos 2278 3.9 04:04:40 19° S 04:08:40 66° ESE 04:14:17 10° NNE
ASTEX 1 4.4 04:04:01 10° SSE 04:08:48 47° ENE 04:13:35 10° N
Lacrosse 5 2.8 04:05:08 10° NW 04:10:06 52° NE 04:15:02 10° ESE
Cosmos 44 Rocket 3.6 04:07:57 24° SW 04:10:44 56° NW 04:15:41 10° NNE
Cosmos 2227 Rocket 2.2 04:05:16 10° NNW 04:10:59 87° WSW 04:16:39 10° SSE
Cosmos 968 Rocket 3.5 04:08:36 23° SSW 04:11:54 74° WNW 04:17:11 10° NNE
CBERS 1 LM4 rocket 4.4 04:07:37 10° NNE 04:12:37 81° ESE 04:16:14 18° S
Shenzhou-11 Module 3.2 04:15:44 24° S 04:16:17 26° SSE 04:18:49 10° E
Cosmos 1271 Rocket 4.2 04:13:42 10° SSE 04:17:17 34° E 04:20:52 10° NNE
ADEOS II 2.7 04:12:42 10° NNE 04:17:52 54° E 04:22:59 10° S
Cosmos 1674 Rocket 3.6 04:14:37 10° N 04:18:57 79° E 04:23:15 10° S
Gbstr 26 Del rocket 4.0 04:17:40 18° S 04:19:37 29° SE 04:23:06 10° ENE
Cosmos 1656 3.7 04:16:23 20° SSW 04:20:29 85° WNW 04:26:12 10° NNE
Meteor 1-4 Rocket 4.2 04:20:24 18° W 04:21:38 21° WNW 04:24:32 10° NNW
Cosmos 1908 Rocket 4.1 04:22:11 10° S 04:26:33 59° E 04:30:55 10° NNE
Cosmos 389 Rocket 3.2 04:27:14 22° SW 04:29:05 39° WNW 04:32:33 10° N
CZ-2D R/B 3.4 04:25:14 10° N 04:29:27 75° WNW 04:32:38 16° SSW
BREEZE-M DEB (TANK) 3.6 04:24:58 10° WNW 04:30:06 51° N 04:32:51 10° E
Helios 1A Rocket 2.8 04:28:31 10° NNE 04:32:34 84° WNW 04:35:58 14° SSW
Okean 1 3.5 04:30:19 10° N 04:34:18 74° E 04:38:14 10° SSE
CZ-2D R/B 3.4 04:31:00 10° N 04:35:21 26° WNW 04:38:59 13° WSW
Cosmos 1802 Rocket 4.0 04:31:46 10° N 04:38:02 87° E 04:44:12 10° S
Delta 2 Rocket 4.5 04:35:55 17° WSW 04:38:18 27° SSW 04:42:15 10° SE
GPS 2-04 Rocket1 3.3 04:35:41 17° WSW 04:38:35 40° S 04:42:25 10° ESE
SL-24 R/B - RUBIN 2 3.5 04:34:50 10° NW 04:39:13 85° WSW 04:43:46 10° SSE
UNKNOWN OBJECT B 3.1 04:35:33 10° N 04:39:30 57° WNW 04:42:47 15° SSW
ARIANE 5 R/B 3.3 04:35:10 10° N 04:39:43 37° WNW 04:43:28 14° SW
Meteor 1-20 Rocket 4.3 04:35:09 13° SSW 04:40:15 68° W 04:46:01 10° N
Cosmos 192 4.4 04:35:57 10° NNW 04:40:49 57° WSW 04:45:40 10° S
SAR-Lupe-2 4.0 04:44:38 10° S 04:47:57 40° W 04:51:21 10° NNW
Cosmos 2082 3.7 04:42:39 10° NNW 04:48:11 59° WSW 04:53:40 10° S
Cosmos 2061 Rocket 4.0 04:42:48 10° N 04:49:03 79° W 04:55:20 10° S
Cosmos 773 Rocket 4.1 04:45:04 10° NNW 04:50:23 84° ENE 04:55:41 10° SSE
Cosmos 1459 Rocket 4.1 04:45:03 10° NNW 04:51:21 63° W 04:57:34 10° S
Resurs 1-4 Rocket 3.9 04:49:38 10° NNW 04:53:09 18° WNW 04:56:41 10° WSW
SL-16 R/B 4.0 04:51:41 12° SW 04:54:57 17° W 04:58:49 10° NW
Cosmos 2322 Rocket 4.5 04:52:42 10° SSE 04:56:43 20° E 05:00:45 10° NE
NOSS 7 (E) 4.4 04:54:53 13° SW 04:57:31 55° NW 05:00:30 10° NNE
Cosmos 1725 Rocket 4.3 04:51:23 10° N 04:57:43 77° E 05:04:00 10° SSE
Cosmos 1812 4.4 04:56:03 10° NW 04:58:37 17° W 05:00:56 11° SW
Cosmos 2100 Rocket 4.3 04:54:42 10° NNW 05:00:36 48° W 05:06:32 10° SSW
Cosmos 1697 Rocket 2.9 04:55:20 11° SW 05:00:48 63° WNW 05:06:27 10° NNE
Cosmos 2360 4.4 04:56:09 10° SSW 05:01:49 76° ESE 05:07:32 10° NNE
USA 102 3.6 05:01:08 10° SSE 05:03:58 66° WSW 05:08:09 10° NNW
Okean 3 4.3 05:00:27 10° NNW 05:04:10 31° W 05:07:53 10° SSW
PSLV R/B 4.0 05:00:18 10° NNE 05:04:40 64° E 05:09:00 10° S
NOSS 7 (H) 4.4 05:03:21 10° SSW 05:06:55 81° ESE 05:10:13 10° NE
Cosmos 1602 3.9 05:04:28 10° SSW 05:08:15 55° W 05:12:01 10° N
Okean O Rocket 3.9 05:04:55 10° NE 05:08:33 24° E 05:12:09 10° SSE
Lacrosse 5 rocket 2.3 05:05:55 10° SSW 05:10:06 47° SE 05:14:29 10° NE
Sich 1 Rocket 3.9 05:16:54 10° SSW 05:21:12 50° W 05:25:31 10° N
ATLAS 2A CENTAUR R/B 3.9 05:18:16 10° WSW 05:27:50 29° SSW 05:33:02 10° SE
Milstar 3 Cent rocket 4.2 05:15:41 10° WSW 05:29:54 40° SSW 05:37:08 10° SE
